Springfield, MO

8:39 AM CDT on April 19, 2018 (GMT -0500)
Springfield-Branson Regional

Weather History for KSGF - April, 2014

Change the Weather History Date:

Wednesday, April 16, 2014

  Actual Average Record
Temperature  
Mean Temperature 51 °F 56 °F  
Max Temperature 63 °F 68 °F 86 °F (1982)
Min Temperature 39 °F 44 °F 27 °F (1953)
Degree Days  
Heating Degree Days 14 10  
Month to date heating degree days 191 192  
Since 1 July heating degree days 4827 4366  
Cooling Degree Days 0 1  
Month to date cooling degree days 7 9  
Year to date cooling degree days 7 12  
Growing Degree Days 1 (Base 50)    
Moisture  
Dew Point 28 °F    
Average Humidity 49    
Maximum Humidity 70    
Minimum Humidity 27    
Precipitation  
Precipitation 0.00 in 0.14 in 1.54 in (1922)
Month to date precipitation 0.84 2.08  
Year to date precipitation 4.96 10.69  
Snow  
Snow 0.00 in - - ()
Month to date snowfall T  
Since 1 July snowfall 32.2  
Snow Depth 0.00 in    
Sea Level Pressure  
Sea Level Pressure 30.06 in    
Wind  
Wind Speed 17 mph (SSE)    
Max Wind Speed 30 mph    
Max Gust Speed 37 mph    
Visibility 10 miles    
Events      
T = Trace of Precipitation, MM = Missing Value Source: NWS Daily Summary

Daily Weather History Graph

Daily Weather History Graph

Search for Another Location

Airport or City:

Astronomy

Apr. 16, 2014 Rise Set
Actual Time 6:37 AM CDT 7:49 PM CDT
Civil Twilight 6:10 AM CDT 8:16 PM CDT
Nautical Twilight 5:38 AM CDT 8:48 PM CDT
Astronomical Twilight 5:05 AM CDT 9:22 PM CDT
Moon 9:32 PM CDT (4/16) 7:26 AM CDT (4/16)
Length of Visible Light 14h 05m
Length of Day
13h 11m
Full, 98% of the Moon is Illuminated
Apr 16
Full
Apr 22
Last Quarter
Apr 29
New
May 6
First Quarter
May 14
Full

Hourly Weather History & Observations

Time (CDT) Temp. Windchill Dew Point Humidity Pressure Visibility Wind Dir Wind Speed Gust Speed Precip Events Conditions
12:52 AM 42.1 °F 35.7 °F 23.0 °F 47% 30.13 in 10.0 mi SSE 11.5 mph - N/A   Clear
1:52 AM 41.0 °F 33.9 °F 24.1 °F 51% 30.12 in 10.0 mi SSE 12.7 mph - N/A   Clear
2:52 AM 42.1 °F 34.2 °F 24.1 °F 49% 30.10 in 10.0 mi SSE 16.1 mph - N/A   Clear
3:52 AM 41.0 °F 33.1 °F 25.0 °F 53% 30.09 in 10.0 mi SSE 15.0 mph - N/A   Clear
4:52 AM 39.9 °F 31.4 °F 27.0 °F 60% 30.09 in 10.0 mi SSE 16.1 mph - N/A   Clear
5:52 AM 39.9 °F 31.4 °F 28.9 °F 65% 30.08 in 10.0 mi SSE 16.1 mph - N/A   Clear
6:52 AM 39.0 °F 31.0 °F 30.0 °F 70% 30.10 in 10.0 mi SSE 13.8 mph - N/A   Clear
7:52 AM 41.0 °F 33.1 °F 30.9 °F 67% 30.12 in 10.0 mi SSE 15.0 mph - N/A   Clear
8:52 AM 44.1 °F 36.5 °F 30.9 °F 60% 30.11 in 10.0 mi SSE 17.3 mph 24.2 mph N/A   Clear
9:52 AM 48.0 °F - 32.0 °F 54% 30.11 in 10.0 mi SSE 24.2 mph 34.5 mph N/A   Clear
10:52 AM 52.0 °F - 32.0 °F 47% 30.10 in 10.0 mi SSE 25.3 mph 31.1 mph N/A   Clear
11:52 AM 54.0 °F - 30.9 °F 41% 30.09 in 10.0 mi SSE 25.3 mph 36.8 mph N/A   Clear
12:52 PM 57.2 °F - 32.0 °F 38% 30.05 in 10.0 mi SSE 24.2 mph 33.4 mph N/A   Clear
1:52 PM 57.9 °F - 30.9 °F 36% 30.04 in 10.0 mi SSE 21.9 mph 32.2 mph N/A   Clear
2:52 PM 60.1 °F - 30.0 °F 32% 30.00 in 10.0 mi South 21.9 mph 33.4 mph N/A   Clear
3:52 PM 62.1 °F - 30.0 °F 30% 29.97 in 10.0 mi SSE 23.0 mph 28.8 mph N/A   Clear
4:52 PM 62.1 °F - 28.0 °F 28% 29.96 in 10.0 mi SSE 24.2 mph 32.2 mph N/A   Clear
5:52 PM 61.0 °F - 27.0 °F 27% 29.96 in 10.0 mi SSE 20.7 mph 28.8 mph N/A   Clear
6:52 PM 60.1 °F - 26.1 °F 27% 29.97 in 10.0 mi South 15.0 mph - N/A   Clear
7:52 PM 55.9 °F - 26.1 °F 32% 30.00 in 10.0 mi South 10.4 mph - N/A   Clear
8:52 PM 51.1 °F - 28.0 °F 41% 30.04 in 10.0 mi South 8.1 mph - N/A   Clear
9:52 PM 51.1 °F - 28.9 °F 43% 30.06 in 10.0 mi SSE 11.5 mph - N/A   Clear
10:52 PM 50.0 °F - 28.9 °F 44% 30.06 in 10.0 mi SSE 13.8 mph - N/A   Clear
11:52 PM 48.9 °F - 30.0 °F 48% 30.06 in 10.0 mi SSE 13.8 mph - N/A   Clear